Weather History for Wautoma, WI

Change the Weather History Date:

Friday, November 22, 2013

  Actual Average (KPCZ) Record (KPCZ)
Temperature  
Mean Temperature 29 °F -  
Max Temperature 34 °F 39 °F 64 °F (1990)
Min Temperature 24 °F 24 °F 5 °F (1964)
Degree Days  
Heating Degree Days 36    
Moisture  
Dew Point -    
Average Humidity    
Maximum Humidity    
Minimum Humidity    
Precipitation  
Precipitation 0.00 in - - ()
Sea Level Pressure  
Sea Level Pressure 30.41 in    
Wind  
Wind Speed 11 mph (NW)    
Max Wind Speed 18 mph    
Max Gust Speed 23 mph    
Visibility 8 miles    
Events Snow    
Averages and records for this station are not official NWS values.
T = Trace of Precipitation, MM = Missing Value Source: NWS Daily Summary

Daily Weather History Graph

Daily Weather History Graph

Search for Another Location

Airport:

Trip Planner

Search our weather history database for the weather conditions in past years. The results will help you decide how hot, cold, wet, or windy it might be!

Date:

Astronomy

Nov. 22, 2013 Rise Set
Actual Time 7:01 AM CST 4:24 PM CST
Civil Twilight 6:29 AM CST 4:56 PM CST
Nautical Twilight 5:54 AM CST 5:32 PM CST
Astronomical Twilight 5:19 AM CST 6:06 PM CST
Moon 8:59 PM CST 10:42 AM CST
Length of Visible Light 10h 26m
Length of Day
9h 23m
Waning Gibbous, 78% of the Moon is Illuminated
Nov 22
Waning Gibbous
Nov 25
Last Quarter
Dec 2
New
Dec 9
First Quarter
Dec 17
Full

Hourly Weather History & Observations

Time (CST) Temp. Windchill Dew Point Humidity Pressure Visibility Wind Dir Wind Speed Gust Speed Precip Events Conditions
12:56 AM 32.9 °F 24.7 °F - N/A% 30.31 in 10.0 mi North 10.4 mph 18.4 mph 0.00 in   Overcast
1:29 AM 32.0 °F 23.6 °F - N/A% 30.31 in 10.0 mi North 10.4 mph - N/A   Overcast
1:46 AM 32.0 °F 23.0 °F - N/A% 30.31 in 10.0 mi North 11.5 mph 17.3 mph 0.00 in   Overcast
1:56 AM 32.0 °F 23.0 °F - N/A% 30.34 in 9.0 mi North 11.5 mph - 0.00 in Snow Light Snow
2:17 AM 30.2 °F 20.8 °F - N/A% 30.33 in 4.0 mi NNW 11.5 mph - 0.00 in Snow Light Snow
2:26 AM 30.2 °F 20.8 °F - N/A% 30.33 in 3.0 mi NNW 11.5 mph - 0.00 in Snow Light Snow
2:37 AM 30.2 °F 21.3 °F - N/A% 30.34 in 4.0 mi NNW 10.4 mph - 0.00 in Snow Light Snow
2:56 AM 30.2 °F 20.2 °F - N/A% 30.35 in 10.0 mi NNW 12.7 mph - N/A Snow Light Snow
3:12 AM 30.2 °F 18.1 °F - N/A% 30.35 in 1.8 mi North 18.4 mph 23.0 mph 0.00 in Snow Light Snow
3:23 AM 28.4 °F 18.0 °F - N/A% 30.36 in 3.0 mi North 12.7 mph 18.4 mph 0.00 in Snow Light Snow
3:39 AM 28.4 °F 20.4 °F - N/A% 30.37 in 2.5 mi North 8.1 mph - 0.00 in Snow Light Snow
3:56 AM 29.1 °F 19.4 °F - N/A% 30.39 in 1.5 mi NNW 11.5 mph - 0.00 in Snow Light Snow
4:09 AM 28.4 °F 18.5 °F - N/A% 30.37 in 2.0 mi North 11.5 mph - 0.00 in Snow Light Snow
4:43 AM 28.4 °F 18.5 °F - N/A% 30.37 in 3.0 mi North 11.5 mph - 0.00 in Snow Light Snow
4:56 AM 28.0 °F 18.6 °F - N/A% 30.40 in 4.0 mi North 10.4 mph - 0.00 in Snow Light Snow
5:19 AM 28.4 °F 21.2 °F - N/A% 30.39 in 2.5 mi North 6.9 mph - 0.00 in Snow Light Snow
5:26 AM 28.4 °F 19.7 °F - N/A% 30.39 in 6.0 mi North 9.2 mph - 0.00 in Snow Light Snow
5:56 AM 28.4 °F 21.2 °F - N/A% 30.40 in 4.0 mi North 6.9 mph - N/A Snow Light Snow
6:48 AM 28.4 °F 20.4 °F - N/A% 30.42 in 10.0 mi NNW 8.1 mph - 0.00 in Snow Light Snow
6:56 AM 28.0 °F 19.3 °F - N/A% 30.45 in 10.0 mi NNW 9.2 mph - 0.00 in   Scattered Clouds
7:28 AM 28.4 °F 20.4 °F - N/A% 30.44 in 10.0 mi NW 8.1 mph - 0.00 in   Overcast
7:56 AM 28.0 °F 18.1 °F - N/A% 30.49 in 10.0 mi NW 11.5 mph - 0.00 in   Overcast
8:56 AM 27.1 °F 18.2 °F - N/A% 30.49 in 10.0 mi NNW 9.2 mph - N/A   Mostly Cloudy
9:20 AM 26.6 °F 16.2 °F - N/A% 30.46 in 10.0 mi NNW 11.5 mph - N/A   Partly Cloudy
9:45 AM 28.4 °F 17.5 °F - N/A% 30.47 in 10.0 mi NNW 13.8 mph - N/A   Mostly Cloudy
9:56 AM 28.0 °F 17.5 °F - N/A% 30.50 in 10.0 mi NW 12.7 mph - N/A   Mostly Cloudy
10:30 AM 28.4 °F 19.1 °F - N/A% 30.48 in 10.0 mi NNW 10.4 mph - N/A   Scattered Clouds
10:56 AM 29.1 °F 21.3 °F - N/A% 30.48 in 10.0 mi North 8.1 mph - N/A   Partly Cloudy
11:56 AM 32.0 °F 24.2 °F - N/A% 30.48 in 10.0 mi WNW 9.2 mph - N/A   Clear
12:56 PM 32.9 °F 24.7 °F - N/A% 30.47 in 10.0 mi WNW 10.4 mph - N/A   Clear
1:56 PM 34.0 °F 25.5 °F - N/A% 30.47 in 10.0 mi NW 11.5 mph - N/A   Clear
2:56 PM 34.0 °F 25.5 °F - N/A% 30.47 in 10.0 mi WNW 11.5 mph - N/A   Clear
3:56 PM 32.0 °F 24.8 °F - N/A% 30.47 in 10.0 mi West 8.1 mph - N/A   Clear
4:56 PM 28.0 °F 21.7 °F - N/A% 30.46 in 10.0 mi WSW 5.8 mph - N/A   Clear
5:56 PM 26.1 °F 18.4 °F - N/A% 30.45 in 10.0 mi West 6.9 mph - N/A   Clear
6:37 PM 26.6 °F 18.2 °F - N/A% 30.41 in 10.0 mi West 8.1 mph - N/A   Partly Cloudy
6:56 PM 25.2 °F 18.3 °F - N/A% 30.44 in 10.0 mi WSW 5.8 mph - N/A   Clear
7:56 PM 24.1 °F 16.0 °F - N/A% 30.44 in 10.0 mi West 6.9 mph - N/A   Clear
8:56 PM 25.2 °F 15.7 °F - N/A% 30.43 in 10.0 mi West 9.2 mph - N/A   Clear
9:56 PM 25.2 °F 15.1 °F - N/A% 30.43 in 10.0 mi West 10.4 mph - N/A   Scattered Clouds
10:56 PM 26.1 °F 16.2 °F - N/A% 30.42 in 10.0 mi WNW 10.4 mph - N/A   Mostly Cloudy
11:56 PM 24.1 °F 12.0 °F - N/A% 30.43 in 10.0 mi NW 13.8 mph - N/A   Overcast